GW0701 Weather Reports


Display with metric or nautical units.
time (UTC)temp
F
wind
direction
speed
MPH
gust
MPH
rain 1hr
in
rain 24hr
in
rain mn
in
humidity
%
barometer
mb
20260505225102 54 250 1.0 1.0 0.00 0.00 0.00 54 1010.2
20260505224559 54 257 2.0 2.0 0.00 0.00 0.00 52 1010.2
20260505224057 54 254 0.0 0.0 0.00 0.00 0.00 54 1010.0
20260505223554 54 191 1.0 1.0 0.00 0.00 0.00 52 1010.2
20260505223050 54 270 0.0 1.0 0.00 0.00 0.00 54 1010.0
20260505222546 54 302 1.0 1.0 0.00 0.00 0.00 52 1009.9
20260505222043 54 328 3.0 3.0 0.00 0.00 0.00 51 1010.1
20260505221540 55 67 2.0 3.0 0.00 0.00 0.00 52 1010.2
20260505221036 54 304 3.0 3.0 0.00 0.00 0.00 52 1010.0
20260505220533 55 340 2.0 2.0 0.00 0.00 0.00 52 1010.2
20260505220031 55 303 2.0 2.0 0.00 0.00 0.00 50 1010.1
20260505215529 55 290 1.0 1.0 0.00 0.00 0.00 50 1010.2
20260505215027 54 38 1.0 1.0 0.00 0.00 0.00 51 1010.3
20260505214525 55 19 3.0 6.0 0.00 0.00 0.00 50 1010.0
20260505214021 55 3 2.0 3.0 0.00 0.00 0.00 50 1010.2
20260505213519 55 260 1.0 2.0 0.00 0.00 0.00 51 1010.1
20260505213015 55 278 1.0 1.0 0.00 0.00 0.00 50 1010.4
20260505212512 55 319 1.0 1.0 0.00 0.00 0.00 53 1010.7
20260505212009 55 242 2.0 3.0 0.00 0.00 0.00 51 1010.6
20260505211506 55 272 1.0 1.0 0.00 0.00 0.00 51 1010.4
20260505211003 55 237 2.0 5.0 0.00 0.00 0.00 48 1010.4
20260505210459 55 333 3.0 3.0 0.00 0.00 0.00 49 1010.6
20260505205956 55 269 1.0 1.0 0.00 0.00 0.00 50 1010.5
20260505205455 55 167 1.0 2.0 0.00 0.00 0.00 48 1010.8
20260505204951 55 351 2.0 3.0 0.00 0.00 0.00 48 1010.5
20260505204449 56 341 3.0 3.0 0.00 0.00 0.00 49 1010.7
20260505203946 56 249 1.0 2.0 0.00 0.00 0.00 50 1010.6
20260505203442 56 263 1.0 2.0 0.00 0.00 0.00 49 1010.5
20260505202939 56 216 2.0 2.0 0.00 0.00 0.00 49 1010.6
20260505202435 55 6 3.0 3.0 0.00 0.00 0.00 49 1010.7
20260505201932 56 334 4.0 6.0 0.00 0.00 0.00 49 1010.5
20260505201429 56 278 5.0 6.0 0.00 0.00 0.00 48 1010.3
20260505200927 56 283 2.0 2.0 0.00 0.00 0.00 49 1010.4
20260505200424 56 296 5.0 6.0 0.00 0.00 0.00 50 1010.6
20260505195919 56 268 1.0 2.0 0.00 0.00 0.00 50 1010.8
20260505195417 56 281 3.0 5.0 0.00 0.00 0.00 49 1010.8
20260505194914 55 212 1.0 1.0 0.00 0.00 0.00 52 1010.5
20260505194412 55 18 3.0 5.0 0.00 0.00 0.00 50 1010.9
20260505193911 55 6 6.0 8.0 0.00 0.00 0.00 52 1011.0
20260505193410 56 70 2.0 2.0 0.00 0.00 0.00 50 1011.0
20260505192907 55 341 2.0 2.0 0.00 0.00 0.00 51 1011.0
20260505192405 56 278 0.0 1.0 0.00 0.00 0.00 51 1011.1
20260505191902 57 249 1.0 1.0 0.00 0.00 0.00 52 1011.6
20260505191401 55 276 1.0 2.0 0.00 0.00 0.00 49 1011.7
20260505190857 54 321 3.0 5.0 0.00 0.00 0.00 51 1011.5
20260505190353 54 286 3.0 5.0 0.00 0.00 0.00 48 1011.6
20260505185848 55 22 7.0 8.0 0.00 0.00 0.00 48 1011.3
20260505185345 55 229 0.0 0.0 0.00 0.00 0.00 50 1011.5
20260505184841 55 153 1.0 1.0 0.00 0.00 0.00 51 1011.6
20260505184338 54 241 0.0 0.0 0.00 0.00 0.00 52 1011.9
20260505183835 53 352 0.0 1.0 0.00 0.00 0.00 52 1011.7
20260505183332 54 276 1.0 1.0 0.00 0.00 0.00 53 1011.7
20260505182829 53 20 1.0 2.0 0.00 0.00 0.00 51 1012.0
20260505182326 53 263 1.0 1.0 0.00 0.00 0.00 55 1012.0
20260505181822 53 243 1.0 1.0 0.00 0.00 0.00 52 1011.9
20260505181320 53 302 1.0 1.0 0.00 0.00 0.00 53 1011.9
20260505180816 53 341 1.0 1.0 0.00 0.00 0.00 51 1011.8
20260505180313 54 269 1.0 2.0 0.00 0.00 0.00 54 1012.2
20260505175809 53 262 1.0 1.0 0.00 0.00 0.00 53 1011.9
20260505175306 53 162 0.0 1.0 0.00 0.00 0.00 51 1011.9
20260505174802 53 123 2.0 2.0 0.00 0.00 0.00 56 1011.7
20260505174300 54 285 0.0 1.0 0.00 0.00 0.00 54 1011.9
20260505173755 53 253 1.0 1.0 0.00 0.00 0.00 53 1011.9
20260505173252 52 335 2.0 2.0 0.00 0.00 0.00 58 1011.7
20260505172749 53 314 1.0 2.0 0.00 0.00 0.00 54 1012.0
20260505172246 53 330 1.0 2.0 0.00 0.00 0.00 53 1012.1
20260505171746 52 303 2.0 3.0 0.00 0.00 0.00 55 1011.9
20260505171243 52 19 3.0 3.0 0.00 0.00 0.00 56 1012.0
20260505170740 51 323 2.0 2.0 0.00 0.00 0.00 53 1012.1
20260505170237 51 352 3.0 5.0 0.00 0.00 0.00 53 1012.1
20260505165732 52 260 0.0 1.0 0.00 0.00 0.00 55 1012.0
20260505165229 52 243 1.0 1.0 0.00 0.00 0.00 54 1012.4
20260505164724 52 260 2.0 2.0 0.00 0.00 0.00 53 1012.3
20260505164221 52 265 0.0 0.0 0.00 0.00 0.00 56 1012.1
20260505163720 51 291 1.0 1.0 0.00 0.00 0.00 57 1012.2
20260505163218 51 320 0.0 1.0 0.00 0.00 0.00 56 1012.1
20260505162715 51 321 3.0 3.0 0.00 0.00 0.00 55 1011.8
20260505162212 51 312 0.0 1.0 0.00 0.00 0.00 56 1011.8
20260505161709 51 282 1.0 1.0 0.00 0.00 0.00 56 1011.8
20260505161206 51 350 3.0 3.0 0.00 0.00 0.00 55 1011.8
20260505160704 51 49 1.0 1.0 0.00 0.00 0.00 56 1011.6
20260505160201 51 14 3.0 3.0 0.00 0.00 0.00 58 1011.6
20260505153140 51 229 0.0 1.0 0.00 0.00 0.00 59 1011.7
20260505152637 51 267 1.0 1.0 0.00 0.00 0.00 60 1011.7
20260505152133 50 251 0.0 0.0 0.00 0.00 0.00 60 1011.7
20260505151629 50 298 0.0 1.0 0.00 0.00 0.00 59 1011.7
20260505151126 50 271 1.0 1.0 0.00 0.00 0.00 59 1011.7
20260505150622 50 340 2.0 2.0 0.00 0.00 0.00 57 1011.5
20260505150119 50 40 2.0 2.0 0.00 0.00 0.00 61 1011.1
20260505140547 50 358 2.0 2.0 0.00 0.00 0.00 64 1010.2
20260505125001 48 68 1.0 3.0 0.00 0.00 0.00 70 1009.6
20260505124457 48 352 4.0 5.0 0.00 0.00 0.00 71 1009.8
20260505123954 48 41 1.0 1.0 0.00 0.00 0.00 69 1010.0
20260505123450 48 17 4.0 6.0 0.00 0.00 0.00 67 1010.1
20260505122946 49 42 1.0 2.0 0.00 0.00 0.00 67 1010.2
20260505122444 49 46 2.0 2.0 0.00 0.00 0.00 67 1010.0
20260505121940 49 0 3.0 3.0 0.00 0.00 0.00 67 1010.2
20260505121438 49 33 1.0 1.0 0.00 0.00 0.00 66 1010.3
20260505120933 49 28 4.0 5.0 0.00 0.00 0.00 67 1010.3
20260505120430 49 6 1.0 2.0 0.00 0.00 0.00 69 1010.3
20260505115929 49 6 2.0 3.0 0.00 0.00 0.00 71 1010.4
20260505115426 49 10 2.0 3.0 0.00 0.00 0.00 71 1010.5
20260505114924 48 13 2.0 2.0 0.00 0.00 0.00 73 1010.6
20260505114420 48 327 0.0 0.0 0.00 0.00 0.00 76 1010.8
20260505113916 48 27 1.0 2.0 0.00 0.00 0.00 77 1010.4
20260505113413 49 7 2.0 2.0 0.00 0.00 0.00 76 1010.3
20260505112909 48 29 0.0 0.0 0.00 0.00 0.00 75 1010.2
20260505112407 49 345 0.0 1.0 0.00 0.00 0.00 76 1010.6
20260505111902 49 317 1.0 1.0 0.00 0.00 0.00 74 1010.7
20260505111357 48 346 1.0 2.0 0.00 0.00 0.00 75 1010.6
20260505110853 48 349 1.0 1.0 0.00 0.00 0.00 76 1010.6
20260505110351 49 323 1.0 2.0 0.00 0.00 0.00 77 1010.6
20260505101821 51 251 0.0 1.0 0.00 0.00 0.00 63 1010.7
20260505101316 51 310 3.0 3.0 0.00 0.00 0.00 63 1010.1
20260505100812 51 281 1.0 2.0 0.00 0.00 0.00 63 1009.9
20260505100309 52 287 0.0 0.0 0.00 0.00 0.00 61 1009.5
20260505095805 52 299 0.0 1.0 0.00 0.00 0.00 57 1009.2
20260505095304 52 353 2.0 2.0 0.00 0.00 0.00 57 1008.9
20260505094758 52 292 1.0 1.0 0.00 0.00 0.00 57 1009.4
20260505094255 52 303 0.0 1.0 0.00 0.00 0.00 56 1009.4
20260505093751 52 342 2.0 3.0 0.00 0.00 0.00 55 1009.1
20260505093249 52 40 1.0 1.0 0.00 0.00 0.00 55 1008.8
20260505092745 53 76 1.0 1.0 0.00 0.00 0.00 55 1009.0
20260505092244 53 39 1.0 1.0 0.00 0.00 0.00 55 1008.7
20260505091741 53 5 3.0 3.0 0.00 0.00 0.00 53 1008.7
20260505091239 53 334 2.0 2.0 0.00 0.00 0.00 53 1008.9
20260505090736 53 21 3.0 3.0 0.00 0.00 0.00 53 1009.0
20260505090235 53 52 1.0 2.0 0.00 0.00 0.00 54 1008.5
20260505085732 53 310 1.0 1.0 0.00 0.00 0.00 54 1008.2
20260505085230 53 337 3.0 5.0 0.00 0.00 0.00 54 1008.2
20260505084727 53 319 3.0 3.0 0.00 0.00 0.00 53 1007.9
20260505084226 53 23 3.0 3.0 0.00 0.00 0.00 52 1007.8
20260505083722 53 36 1.0 2.0 0.00 0.00 0.00 53 1007.8
20260505083219 53 350 2.0 3.0 0.00 0.00 0.00 51 1007.7
20260505082715 53 336 2.0 2.0 0.00 0.00 0.00 51 1007.8
20260505082213 54 355 3.0 3.0 0.00 0.00 0.00 52 1007.6
20260505081708 54 0 4.0 5.0 0.00 0.00 0.00 52 1006.8
20260505081206 54 38 5.0 7.0 0.00 0.00 0.00 51 1007.1
20260505080703 54 41 4.0 9.0 0.00 0.00 0.00 51 1007.3
20260505080158 54 326 6.0 9.0 0.00 0.00 0.00 50 1007.6
20260505075654 54 313 3.0 3.0 0.00 0.00 0.00 50 1007.8
20260505075151 55 323 1.0 2.0 0.00 0.00 0.00 50 1007.2
20260505074648 55 333 3.0 3.0 0.00 0.00 0.00 50 1007.6
20260505074145 55 10 3.0 3.0 0.00 0.00 0.00 50 1007.4
20260505073643 55 20 1.0 2.0 0.00 0.00 0.00 50 1007.5
20260505073141 55 171 3.0 5.0 0.00 0.00 0.00 51 1007.3
20260505072636 55 24 4.0 5.0 0.00 0.00 0.00 51 1007.4
20260505072133 55 265 1.0 1.0 0.00 0.00 0.00 52 1007.4
20260505071628 55 353 3.0 3.0 0.00 0.00 0.00 51 1007.3
20260505071127 55 15 3.0 7.0 0.00 0.00 0.00 52 1007.4
20260505070624 55 15 3.0 5.0 0.00 0.00 0.00 51 1007.4
20260505070120 55 22 3.0 5.0 0.00 0.00 0.00 52 1007.1
20260505065616 55 214 0.0 1.0 0.00 0.00 0.00 53 1007.1
20260505065113 55 88 1.0 1.0 0.00 0.00 0.00 54 1006.7
20260505064609 56 288 2.0 2.0 0.00 0.00 0.00 51 1006.9
20260505064108 56 300 3.0 5.0 0.00 0.00 0.00 51 1007.0
20260505063605 56 288 2.0 2.0 0.00 0.00 0.00 51 1006.9
20260505063101 56 286 2.0 2.0 0.00 0.00 0.00 51 1006.7
20260505062557 57 345 2.0 2.0 0.00 0.00 0.00 50 1006.7
20260505062055 57 283 1.0 2.0 0.00 0.00 0.00 51 1006.9
20260505061552 57 310 1.0 1.0 0.00 0.00 0.00 51 1006.8
20260505061050 57 302 4.0 5.0 0.00 0.00 0.00 49 1006.6
20260505060547 57 275 0.0 1.0 0.00 0.00 0.00 51 1006.3
20260505060044 57 326 5.0 7.0 0.00 0.00 0.00 51 1006.3
20260505055539 57 352 2.0 2.0 0.00 0.00 0.00 50 1006.1
20260505055036 57 294 1.0 1.0 0.00 0.00 0.00 50 1005.8
20260505054533 57 46 1.0 2.0 0.00 0.00 0.00 49 1005.9
20260505054032 58 355 3.0 6.0 0.00 0.00 0.00 49 1005.8
20260505053528 58 337 1.0 1.0 0.00 0.00 0.00 48 1005.6
20260505053025 58 62 2.0 3.0 0.00 0.00 0.00 49 1005.4
20260505052522 59 322 2.0 3.0 0.00 0.00 0.00 48 1005.2
20260505052020 59 310 1.0 1.0 0.00 0.00 0.00 50 1005.1
20260505051516 59 323 3.0 6.0 0.00 0.00 0.00 48 1005.1
20260505051014 59 56 3.0 5.0 0.00 0.00 0.00 49 1005.0
20260505050512 59 37 2.0 2.0 0.00 0.00 0.00 49 1004.7
20260505041440 62 311 11.0 14.0 0.00 0.00 0.00 49 1003.5
20260505040937 62 20 8.0 9.0 0.00 0.00 0.00 49 1003.1
20260505040434 63 355 5.0 7.0 0.00 0.00 0.00 49 1003.2
20260505035931 63 24 4.0 7.0 0.00 0.00 0.00 47 1002.9
20260505035427 63 357 7.0 9.0 0.00 0.00 0.00 47 1003.1
20260505034925 63 349 2.0 3.0 0.00 0.00 0.00 48 1003.1
20260505034421 64 350 4.0 9.0 0.00 0.00 0.00 49 1003.2
20260505033918 64 33 6.0 10.0 0.00 0.00 0.00 48 1003.3
20260505033414 64 71 2.0 3.0 0.00 0.00 0.00 48 1003.4
20260505032913 64 10 5.0 7.0 0.00 0.00 0.00 47 1003.6
20260505032409 65 0 3.0 3.0 0.00 0.00 0.00 47 1003.6
20260505031906 65 340 6.0 7.0 0.00 0.00 0.00 47 1003.4
20260505031403 66 314 6.0 8.0 0.00 0.00 0.00 47 1003.5
20260505030900 66 318 4.0 7.0 0.00 0.00 0.00 46 1003.4
20260505030356 66 10 2.0 3.0 0.00 0.00 0.00 47 1003.1
20260505025851 66 347 3.0 5.0 0.00 0.00 0.00 48 1003.2
20260505025349 67 43 3.0 5.0 0.00 0.00 0.00 48 1003.0
20260505024848 67 40 5.0 6.0 0.00 0.00 0.00 48 1002.9
20260505024345 68 8 3.0 5.0 0.00 0.00 0.00 48 1002.8
20260505023842 68 337 5.0 6.0 0.00 0.00 0.00 48 1002.7
20260505023339 68 22 8.0 9.0 0.00 0.00 0.00 48 1002.6
20260505022836 69 25 11.0 16.0 0.00 0.00 0.00 49 1002.5
20260505022333 69 341 5.0 7.0 0.00 0.00 0.00 51 1002.3
20260505021830 69 241 3.0 6.0 0.00 0.00 0.00 53 1002.1
20260505021327 70 232 3.0 3.0 0.00 0.00 0.00 54 1002.1
20260505020822 70 76 4.0 5.0 0.00 0.00 0.00 54 1002.0
20260505020318 71 30 9.0 14.0 0.00 0.00 0.00 52 1001.4
20260505015815 71 355 7.0 8.0 0.00 0.00 0.00 56 1001.4
20260505015313 72 79 6.0 8.0 0.00 0.00 0.00 58 1001.2
20260505014810 73 322 3.0 3.0 0.00 0.00 0.00 60 1000.7
20260505014307 73 301 2.0 3.0 0.00 0.00 0.00 58 1000.4
20260505013803 73 246 2.0 2.0 0.00 0.00 0.00 57 999.9
20260505013300 73 236 3.0 3.0 0.00 0.00 0.00 57 999.9
20260505012759 74 272 1.0 1.0 0.00 0.00 0.00 57 999.9
20260505012256 73 240 1.0 1.0 0.00 0.00 0.00 57 999.8
20260505011752 73 343 1.0 2.0 0.00 0.00 0.00 59 1000.0
20260505011249 73 319 2.0 2.0 0.00 0.00 0.00 59 1000.1
20260505010744 74 303 1.0 2.0 0.00 0.00 0.00 60 999.9
20260505010241 75 254 1.0 1.0 0.00 0.00 0.00 58 999.8
20260505005737 75 259 3.0 3.0 0.00 0.00 0.00 57 999.7
20260505005234 75 241 2.0 3.0 0.00 0.00 0.00 56 999.5
20260505004732 76 222 2.0 2.0 0.00 0.00 0.00 57 999.5
20260505004228 76 218 3.0 3.0 0.00 0.00 0.00 55 999.3
20260505003725 76 238 1.0 2.0 0.00 0.00 0.00 55 999.4
20260505003223 77 226 2.0 2.0 0.00 0.00 0.00 54 999.5
20260505002719 77 230 1.0 2.0 0.00 0.00 0.00 54 998.9
20260505002217 77 210 2.0 2.0 0.00 0.00 0.00 53 999.2
20260505001714 77 236 2.0 3.0 0.00 0.00 0.00 53 999.0
20260505001211 77 198 2.0 2.0 0.00 0.00 0.00 53 999.2
20260505000708 77 261 2.0 2.0 0.00 0.00 0.00 53 999.0
20260505000206 76 243 2.0 2.0 0.00 0.00 0.00 54 999.2
20260504235702 76 241 3.0 3.0 0.00 0.00 0.00 54 999.2
20260504235158 76 255 3.0 5.0 0.00 0.00 0.00 53 999.1
20260504234656 77 218 2.0 2.0 0.00 0.00 0.00 53 999.3
20260504234153 77 220 3.0 3.0 0.00 0.00 0.00 52 999.5
20260504233649 77 171 3.0 5.0 0.00 0.00 0.00 52 999.3
20260504233145 77 234 3.0 3.0 0.00 0.00 0.00 51 999.3
20260504232643 77 218 5.0 6.0 0.00 0.00 0.00 50 999.2
20260504232139 77 230 4.0 5.0 0.00 0.00 0.00 49 999.2
20260504231636 78 215 8.0 9.0 0.00 0.00 0.00 48 999.3
20260504231132 79 263 5.0 7.0 0.00 0.00 0.00 47 999.1
20260504230629 79 229 6.0 7.0 0.00 0.00 0.00 47 999.4
20260504230128 79 201 4.0 5.0 0.00 0.00 0.00 48 999.3
20260504225626 79 230 6.0 7.0 0.00 0.00 0.00 48 999.7